Weather in Ovoshchnoy

Russia / Rostov Oblast     47°06′12″N   39°38′49″E
temp.,
°C
wind,
m/s
gust,
m/s
humid.,
%
clouds,
%
prec.,
mm/h
press.,
hPa
HPBL,
m
6 august, fri
fri600:00+26ese4104688 0.0 1011159
03:00+24ese384735 0.0 1010154
06:00+25ese6144195 0.0 1010393
09:00+29ese81230100 0.2 1010679
12:00+36ese8102238 0.0 10082091
15:00+38ese892098 0.0 10063074
18:00+36e81122100 0.0 10051747
21:00+31e7162771 0.0 1005586
7 august, sat
sat700:00+30e91724100 0.0 1005683
03:00+28ese8172844 0.0 1004591
06:00+27ese7163655 0.0 1005667
09:00+30ese81237100 0.4 1005897
12:00+31ese6934100 0.9 10061093
15:00+37ese5519100 1.1 10042090
18:00+36ese462084 0.0 1003875
21:00+30e4831100 0.1 1004136
8 august, sun
sun800:00+27e2339100 0.0 100451
03:00+25sw2359100 0.5 100660
06:00+22se4781100 1.3 1008140
09:00+23e4778100 2.3 1010204
12:00+30ese224191 0.0 10091316
15:00+33ne22345 0.0 10091965
18:00+30ene2540100 0.0 1009222
21:00+23nw2378100 0.1 1011158
9 august, mon
mon900:00+23wsw4779100 0.0 1011233
03:00+22wsw348098 0.0 1011111
06:00+22sw358284 0.0 1011126
09:00+26sw3561100 0.0 1011378
12:00+26ssw6861100 0.0 1013747
15:00+31sw574171 0.0 10121587
18:00+30sw4543100 0.0 10111260
21:00+22s2377100 4.7 101289
10 august, tue
tue1000:00+21ssw25920 0.0 1012121
03:00+21s22831 0.0 101234
06:00+21s34810 0.0 101276
09:00+27s345524 0.0 1011635
12:00+32s663722 0.0 10102339
15:00+32ssw563393 0.0 10092408
18:00+31w56354 0.0 1009900
21:00+25w37600 0.0 1010131